RH
80 63 56 53 52 40 38 33 22 21 18 16 21 27 27 22 36 52 63 57 55 54 78 92 87 90 90 82 83 84 86 83 80 86 90 93 94 96 98 95 89 88 88 89 79 88 94 96 94
72 61 56 47 52 44 34 23 25 20 19 18 28 35 38 36 46 59 67 73 63 53 78 80 88 88 83 82 85 83 86 90 75 87 86 86 94 98 97 93 89 86 86 82 84 93 96 92 91
68 62 51 46 50 46 30 21 20 18 19 26 32 45 42 44 61 66 70 66 68 63 73 79 89 89 82 84 85 83 87 85 77 90 86 87 94 98 95 91 86 87 84 91 96 91 94 89 91
50 54 54 49 38 33 28 20 16 18 19 22 36 37 51 56 59 76 84 68 70 75 74 83 86 86 79 81 87 78 86 87 79 87 85 86 95 96 93 85 85 86 94 92 89 87 84 85 89
47 41 47 43 41 31 21 20 17 19 19 26 27 39 43 58 69 75 80 76 72 76 80 85 81 88 75 84 88 78 78 86 85 80 84 90 92 92 95 86 87 92 94 96 88 86 90 84 86
51 40 44 42 33 25 22 19 19 18 20 19 25 34 34 54 61 77 77 84 78 71 76 84 85 85 76 92 88 76 59 89 87 90 89 90 88 91 90 88 88 95 96 90 81 76 78 76 69
54 43 38 32 27 23 22 18 20 21 20 21 19 24 31 59 64 80 72 78 95 90 75 82 86 90 77 93 88 75 47 92 89 92 94 92 85 87 95 95 98 98 92 80 70 58 51 51 50
44 44 42 32 29 26 17 18 17 19 23 17 17 27 28 42 80 88 65 83 86 87 93 87 88 84 84 98 92 68 55 84 95 98 95 92 84 89 90 93 98 99 89 69 58 54 53 49 46
39 72 58 38 31 25 17 18 16 17 23 22 21 20 22 44 81 92 89 76 87 78 76 99 85 77 72 88 92 72 67 83 93 92 91 86 87 90 91 86 96 93 80 67 60 55 52 48 45
49 55 47 29 23 23 19 19 18 22 24 28 26 20 23 63 80 80 83 85 85 86 71 77 93 81 70 87 93 80 76 78 72 85 84 84 77 73 72 92 92 89 69 62 57 51 44 41 48
43 49 30 26 24 23 24 22 18 24 30 25 28 26 30 49 62 73 80 87 84 87 79 80 72 86 69 82 89 73 70 60 64 70 77 64 64 72 78 91 93 88 65 72 59 50 48 46 41
57 41 38 30 26 28 33 29 26 23 24 21 22 26 36 45 54 68 84 94 83 77 72 71 75 80 78 74 86 83 64 58 58 63 63 60 63 72 64 67 67 66 60 58 60 56 48 46 46
38 38 34 34 35 30 30 35 31 28 24 22 25 37 32 52 59 64 73 85 82 77 79 77 68 89 85 61 82 91 82 64 62 59 58 62 67 70 64 62 61 61 57 52 53 48 44 46 48
34 34 35 35 35 38 36 34 34 31 23 24 27 29 32 33 56 60 64 66 82 76 94 77 75 98 98 58 78 87 93 82 78 69 67 62 62 65 60 57 57 57 55 52 48 46 48 48 54
43 56 52 44 44 45 40 48 41 29 27 30 28 30 30 36 50 56 59 57 80 92 75 62 97 87 97 64 64 77 91 92 86 80 72 71 70 68 64 62 63 63 59 52 50 49 53 56 55
56 58 82 45 44 45 47 66 32 26 30 34 33 31 33 36 45 57 61 60 71 91 82 86 90 72 96 84 74 71 73 82 89 88 91 83 81 74 72 71 69 65 62 60 50 54 58 60 58
64 81 64 54 41 45 52 54 33 24 28 34 35 35 34 37 48 58 61 61 72 85 93 86 82 71 91 83 79 85 81 84 79 87 90 95 90 86 77 66 66 67 67 64 59 60 60 59 57
73 95 76 59 46 47 51 46 39 49 46 32 38 34 38 48 66 78 75 71 74 85 88 97 89 88 81 83 75 80 85 86 86 87 84 89 92 87 81 76 73 72 73 68 66 61 60 57 55
79 99 96 84 44 44 48 44 36 63 60 54 37 34 41 54 83 84 92 82 80 83 90 92 91 80 81 86 82 74 75 77 82 89 86 84 81 77 79 80 81 81 76 70 66 62 58 59 61
78 98 95 77 54 53 41 53 37 58 64 64 59 45 52 88 95 98 96 95 88 90 83 88 89 75 79 80 73 78 76 72 78 90 90 88 88 88 86 86 95 93 79 79 75 61 61 60 64
96 85 85 100 73 59 62 91 75 55 56 60 62 61 72 80 95 97 97 98 96 87 88 88 89 90 85 84 82 78 78 78 81 92 91 91 93 92 94 88 93 94 87 79 79 90 67 72 74
95 70 91 95 70 85 60 84 89 72 69 81 72 74 80 85 87 90 93 100 98 91 86 91 93 88 66 81 90 88 86 83 84 84 86 84 79 93 95 98 95 88 95 99 91 87 100 81 79
97 70 73 86 98 87 79 71 89 90 86 93 89 89 84 85 85 88 92 91 92 97 97 90 90 90 88 82 84 86 93 84 87 88 92 78 72 91 83 76 92 99 91 94 100 100 99 100 94
76 83 86 87 96 95 98 76 97 100 98 80 85 84 72 67 84 89 78 70 72 72 71 70 77 86 86 87 86 86 89 91 88 94 93 80 80 89 86 66 64 99 76 79 82 86 100 97 95
86 79 95 99 98 98 99 67 98 94 67 79 90 86 78 72 75 85 78 70 69 67 71 82 85 85 93 99 99 98 83 88 92 81 90 86 89 89 78 79 99 97 81 68 73 98 100 99 94
88 63 85 94 92 92 69 92 95 89 83 89 81 80 81 77 77 74 65 69 66 68 63 61 64 65 66 69 74 87 99 99 98 96 99 98 96 98 99 90 97 90 82 80 94 100 100 99 96
61 64 45 56 45 61 81 91 74 75 85 83 82 79 78 83 77 67 67 52 52 53 56 58 59 62 64 67 65 64 66 75 90 95 99 94 99 97 100 100 100 100 100 100 100 100 99 99 97
54 41 62 59 74 75 64 64 72 75 84 82 88 87 80 68 60 56 47 49 52 53 53 53 54 56 59 62 66 66 64 62 65 77 88 94 98 99 99 100 100 100 100 100 100 100 100 96 96
54 45 39 41 51 47 58 63 41 50 54 62 67 70 68 63 50 44 40 41 42 45 51 55 57 59 60 58 57 62 65 66 64 68 73 84 94 99 100 100 100 100 100 100 100 100 96 95 91
54 41 36 47 51 43 43 58 38 43 46 49 52 50 47 45 44 42 40 40 43 45 46 51 55 57 59 61 59 59 59 64 67 67 68 71 79 91 99 100 100 100 100 100 99 94 87 80 83
Wind_Speed
8 7 6 7 8 9 22 25 22 19 23 15 11 7 10 13 6 2 3 5 9 18 24 25 24 22 20 17 16 14 14 14 20 20 21 21 20 20 19 19 19 19 17 17 16 16 15 16 15
4 8 9 7 12 17 18 22 25 20 13 11 5 5 13 4 7 5 5 3 8 20 27 24 25 22 21 19 17 16 15 16 21 22 23 22 22 21 19 19 19 19 18 17 16 15 14 16 13
6 8 8 6 17 22 19 18 19 20 15 7 7 4 8 1 8 4 7 5 8 16 22 24 25 21 21 20 18 16 14 15 21 22 23 23 23 21 20 19 20 18 17 16 14 14 15 15 11
8 6 6 14 23 23 28 22 14 19 17 10 9 14 5 4 4 4 2 5 11 13 18 22 24 21 20 21 18 16 14 13 22 23 24 24 23 21 20 21 19 18 16 15 16 14 13 14 11
12 7 14 19 28 24 18 21 23 17 18 15 16 19 5 6 7 6 8 4 13 16 17 19 23 20 19 21 19 17 14 14 20 22 24 23 23 20 20 22 20 18 16 15 16 17 15 12 11
8 8 14 21 25 23 24 21 17 25 19 22 21 19 15 13 10 4 11 8 8 17 16 17 19 20 19 20 20 17 16 15 18 22 23 23 21 19 18 21 20 17 16 15 14 14 13 12 10
14 13 20 24 22 22 21 22 24 18 21 20 19 23 13 14 14 11 14 3 10 7 12 16 16 16 20 20 20 16 16 17 17 19 20 23 20 18 16 16 16 15 15 14 13 12 11 10 9
10 13 25 23 21 25 19 22 24 23 23 19 21 17 16 15 20 11 15 16 8 18 8 10 14 15 17 17 18 16 17 20 19 19 20 18 17 17 16 16 14 15 15 13 12 11 10 9 7
10 7 16 25 25 19 21 21 20 18 18 20 24 23 16 3 18 12 12 24 18 22 20 9 15 17 19 19 17 16 17 21 20 18 18 16 15 15 15 14 15 14 14 12 11 10 9 8 6
11 14 23 21 20 21 22 23 20 17 21 21 23 21 20 14 12 12 15 17 16 20 40 35 22 20 22 20 20 17 16 17 18 16 16 15 14 15 15 14 14 13 13 12 11 10 9 7 5
10 19 20 18 21 20 22 22 20 18 21 18 19 15 11 14 14 10 10 17 18 18 25 31 37 36 26 24 23 21 18 17 17 18 18 17 17 14 12 11 12 11 12 9 10 9 8 8 7
20 20 19 21 23 22 17 19 24 20 22 20 19 18 9 9 13 15 17 21 23 22 26 26 36 44 31 22 27 22 21 19 18 18 19 17 16 15 14 13 13 12 11 10 10 9 9 8 8
20 19 20 22 20 23 21 20 22 22 22 18 22 13 10 7 14 18 21 21 25 22 22 23 29 34 26 27 27 24 18 20 17 18 18 16 14 15 14 12 12 12 11 11 10 10 10 10 9
17 18 19 20 21 20 21 23 21 23 22 19 17 19 22 15 13 16 21 23 22 20 22 20 21 27 23 25 25 24 20 18 20 17 17 15 14 14 13 12 11 10 10 11 11 11 10 10 10
15 18 20 23 18 21 17 22 26 26 20 18 24 16 15 14 16 23 22 22 26 24 26 22 12 14 21 18 18 19 20 19 16 16 16 14 12 12 12 11 11 11 11 11 11 11 11 11 11
17 17 16 12 21 22 19 19 26 22 20 20 16 17 17 19 12 23 24 22 15 18 18 13 8 8 3 15 15 14 14 15 17 18 17 16 13 12 12 11 12 12 11 11 12 12 12 12 12
11 14 17 18 18 16 20 20 22 16 23 21 14 16 14 10 10 22 19 19 18 15 15 13 16 14 8 10 13 14 14 14 14 13 14 15 14 13 11 12 11 11 11 11 12 13 14 13 13
11 8 14 16 15 19 22 20 2 5 9 15 16 16 15 7 8 6 14 12 13 15 18 18 22 24 17 6 10 14 16 15 13 14 13 13 14 13 12 11 11 11 13 13 14 14 15 15 15
11 14 14 11 14 18 23 19 14 5 7 12 16 15 8 9 3 9 15 12 9 14 20 19 22 22 17 11 14 14 19 17 14 12 12 11 11 11 12 12 12 9 12 14 16 17 17 16 15
16 14 16 14 11 11 19 17 13 2 7 9 12 11 9 9 8 6 14 11 5 5 16 17 15 17 11 8 11 7 8 9 10 7 6 4 5 6 9 11 10 14 15 16 15 19 19 19 20
13 17 13 6 12 15 14 3 6 7 7 4 5 1 3 11 12 5 0 12 4 7 11 14 12 9 11 10 7 6 10 10 8 8 6 6 4 7 9 14 14 14 16 18 22 24 23 19 22
11 12 10 7 9 4 11 6 2 5 8 4 6 5 5 10 10 6 3 5 9 5 4 5 12 15 11 17 14 12 11 9 7 8 8 10 9 10 8 9 15 16 15 16 21 23 32 27 19
3 6 8 3 2 8 7 4 3 7 6 8 6 8 6 10 12 11 5 3 3 6 14 14 17 21 27 28 29 23 20 18 17 14 16 9 11 13 12 12 15 16 12 11 17 12 17 16 17
12 6 7 8 3 3 2 3 4 4 5 5 6 6 8 13 11 11 3 6 6 3 6 14 17 17 18 23 29 32 30 25 23 26 19 17 13 15 14 10 15 28 18 12 11 9 16 15 9
3 6 2 4 1 4 2 5 4 4 5 2 5 6 11 13 12 8 4 7 8 11 10 9 7 4 4 2 5 12 24 27 31 28 27 24 24 23 20 20 29 27 21 14 17 21 19 18 17
5 5 4 2 3 4 7 5 4 5 3 9 7 11 12 13 10 9 6 8 10 14 13 12 10 10 8 7 6 4 3 6 15 17 19 20 20 23 25 27 31 28 24 22 25 27 23 20 18
4 2 6 3 8 6 3 5 7 9 9 9 10 13 13 13 9 8 8 10 16 14 14 13 12 12 10 9 9 8 6 4 1 2 7 16 19 24 26 27 27 28 27 27 29 26 23 21 20
4 7 3 1 2 5 5 10 6 8 10 9 9 12 12 10 10 9 7 11 13 13 12 12 13 13 12 12 10 8 7 5 4 3 5 6 9 13 15 19 22 27 26 28 27 24 20 19 19
4 5 1 1 3 2 4 4 6 9 11 12 11 12 11 8 7 7 8 11 12 12 12 13 14 14 14 13 10 8 7 7 6 5 6 7 7 8 13 16 22 25 28 26 21 19 18 18 18
4 10 7 4 4 4 8 4 2 8 10 10 10 10 9 8 6 7 9 11 11 12 13 13 12 12 13 12 11 10 9 8 7 7 8 8 8 8 11 14 20 24 23 19 19 20 20 20 18
Wind_Direction
285 278 256 238 227 233 241 238 251 253 238 231 259 304 267 253 306 202 36 234 204 172 162 171 172 169 168 165 173 172 167 170 169 173 165 159 153 148 144 141 139 137 134 130 127 126 125 121 115
257 256 241 254 233 234 233 239 236 243 242 239 148 292 260 219 28 73 56 200 229 172 157 173 176 175 170 168 175 172 169 173 170 172 167 163 155 150 146 143 142 139 138 135 132 129 128 125 120
234 236 239 228 232 236 245 223 236 231 227 282 189 188 298 64 48 47 5 148 199 156 158 173 176 178 171 171 175 174 166 172 172 171 169 165 155 150 147 145 144 142 146 140 137 137 136 132 125
214 209 253 245 236 231 243 257 241 234 210 223 217 242 139 20 133 49 359 176 180 146 163 178 176 181 177 172 179 173 170 163 175 174 172 163 150 147 146 147 149 150 142 142 137 134 141 134 129
226 239 233 230 242 254 248 238 253 241 233 218 230 249 167 174 112 63 94 81 181 170 176 175 180 182 179 176 180 172 170 155 169 174 166 154 146 149 149 152 152 149 146 143 142 140 140 142 144
216 239 237 237 246 238 248 259 247 249 224 224 227 227 250 160 167 98 115 27 233 179 183 176 182 183 179 183 179 175 170 155 161 163 160 153 147 148 150 159 158 153 148 146 146 147 149 150 148
237 229 241 251 256 244 244 234 250 249 253 234 250 250 224 166 174 155 129 311 329 9 177 165 179 186 181 185 181 179 173 168 153 159 157 150 154 153 150 155 157 154 153 153 153 151 150 152 147
245 250 256 247 253 253 253 242 235 237 244 262 256 258 260 182 175 169 193 143 14 25 18 185 175 181 183 181 185 180 175 174 160 150 150 150 156 154 157 158 159 160 163 162 161 159 158 156 153
250 252 247 248 250 252 260 260 245 240 252 250 258 250 262 85 150 165 173 192 267 320 337 331 186 189 188 183 179 174 173 169 170 161 155 154 155 156 159 163 165 169 169 169 170 170 174 170 175
226 232 245 257 262 254 257 253 254 245 242 238 259 254 243 132 169 184 188 177 218 290 281 291 318 203 200 185 175 166 167 169 174 172 162 164 162 166 166 168 168 172 174 175 179 183 183 174 196
241 248 270 265 257 268 275 268 255 236 246 246 237 240 266 184 185 189 202 172 174 230 262 278 294 302 213 175 181 171 166 172 174 176 172 170 167 164 165 174 174 177 180 183 191 198 194 206 203
252 264 266 260 269 274 256 274 264 251 248 249 248 231 323 206 209 174 166 163 178 208 242 254 273 295 223 175 184 177 172 173 170 171 174 172 170 171 177 174 181 184 193 195 195 203 207 212 217
253 260 262 268 259 260 267 260 261 254 254 238 263 276 261 202 225 195 193 173 177 197 229 239 260 295 213 184 178 180 178 171 172 171 173 170 170 174 176 181 186 192 193 201 206 212 212 214 214
276 280 278 268 261 269 250 252 258 258 256 260 255 257 244 278 207 205 200 193 189 191 191 225 264 263 281 187 176 177 175 172 167 171 174 174 175 176 182 184 190 198 201 204 211 216 217 220 219
272 277 276 263 260 244 250 256 245 245 256 256 239 245 251 257 203 216 205 203 190 185 190 220 229 279 294 167 175 178 174 174 171 168 172 173 173 176 182 187 196 203 210 217 216 223 223 226 225
274 266 259 250 232 240 226 260 234 238 245 245 260 234 234 239 224 223 209 211 201 176 191 205 220 312 296 150 167 169 173 180 181 180 182 182 185 182 187 196 205 209 214 217 217 217 219 229 228
245 259 253 264 235 213 207 241 252 238 220 234 242 243 238 229 251 226 208 222 198 176 182 188 189 203 228 190 187 166 175 177 182 185 186 189 196 199 203 209 215 215 215 218 220 219 219 221 228
272 258 258 250 223 193 212 231 272 9 320 232 246 242 233 202 229 182 220 197 190 184 184 172 180 187 198 213 189 187 177 181 179 186 188 192 202 206 213 221 224 222 217 221 222 228 222 226 224
271 260 280 272 242 211 215 220 217 25 356 274 244 239 246 210 209 183 199 177 162 159 181 174 174 177 186 223 211 203 204 189 184 183 184 192 199 210 216 223 222 232 239 228 230 226 230 223 232
256 252 259 269 232 225 203 226 205 195 303 316 289 250 250 151 108 55 144 175 207 192 183 193 195 185 180 219 204 195 199 198 199 191 189 216 233 235 235 236 239 236 244 260 253 232 226 221 217
244 248 262 270 191 216 157 213 231 247 260 266 289 46 209 142 110 105 54 202 239 283 245 219 188 189 214 226 219 202 220 216 197 192 184 203 218 238 247 250 241 259 264 263 264 274 237 220 213
246 230 228 36 162 165 204 179 165 318 278 218 218 143 123 102 91 104 4 82 249 230 110 204 234 222 203 225 225 226 242 246 226 203 232 268 279 251 242 257 254 252 262 263 258 265 265 238 218
136 105 108 167 257 132 192 232 99 20 234 175 129 106 135 103 92 55 4 346 286 217 224 222 220 206 224 227 234 245 252 249 258 259 253 254 256 257 243 250 266 255 245 262 256 261 253 239 243
157 166 223 217 235 116 50 300 45 331 303 317 69 76 80 91 86 82 76 111 107 124 194 222 236 242 235 230 233 232 235 240 239 245 233 236 236 244 238 236 269 249 243 246 279 283 250 234 181
242 197 211 209 135 66 337 67 54 351 306 306 89 124 86 69 74 78 42 66 59 75 82 113 125 91 65 127 207 223 234 233 230 233 225 227 234 232 231 224 236 241 246 253 271 245 221 209 206
195 294 308 17 115 102 83 22 23 85 38 81 70 92 80 73 72 53 56 77 72 59 64 78 74 65 53 54 59 68 91 193 205 222 225 223 228 238 242 238 239 242 245 235 232 223 218 216 214
351 293 333 91 91 83 84 138 110 83 87 86 81 75 74 71 65 81 59 48 66 68 60 61 66 62 52 45 44 38 43 24 67 268 229 238 241 249 246 245 246 244 234 230 217 210 205 208 213
253 329 283 21 108 74 68 47 78 95 96 98 90 84 83 76 71 69 56 59 60 60 60 58 56 53 41 33 32 16 15 2 345 314 270 259 251 248 247 247 235 226 223 216 209 208 209 207 214
343 10 329 355 4 88 117 90 54 104 110 109 105 102 95 89 83 76 57 52 52 52 51 50 42 36 32 26 17 8 8 343 331 315 299 275 257 244 240 236 228 224 213 208 204 208 207 210 209
278 19 8 334 37 17 86 101 148 108 111 113 108 100 92 92 86 76 64 55 44 39 36 38 33 34 22 8 6 8 1 345 326 315 301 296 293 270 257 240 231 224 211 203 207 210 211 210 210